SENTINEL-3B (43437 NORAD) Tracking and Keplerian Element Data

This shows tracking and keplerian element data for the satellite.

Feedback or suggestion? Click here.




ElementValue
Catalog43437
NameSENTINEL-3B
Epoch Orbit33680
Epoch Day286.81539634
Epoch Year2024
RAAN352.0363
Inclination98.6329
Eccentricity5.9E-05
Argument of Perigee105.8284
Mean Anonmoly254.2961
Mean Motion14.26729344
Decay Rate5.31E-06
L11 43437U 18039A 24286.81539634 .00000531 00000+0 23750-3 0 9991
L22 43437 98.6329 352.0363 0000590 105.8284 254.2961 14.26729344336805



Live tracking and technical data element details for SENTINEL-3B (NORAD 43437). SENTINEL-3B can be tracked NOW for your location showing map with azimuth and elevation plus other details from your city location.







IsCatalogInMostPopularTable: catalog: 43437, numindb: 878
Update: records affected: 1



GetName: 43437 SENTINEL-3B

Hit Count: updated at: Thu, 23 Jan 2025 14:11:42 GMT